Location: Unspecified
(43.4680°N, 87.1740°E)
Time: 12:42:42
(UTC+00:00)

Daily predictions for brighter satellites

Satellite Brightness Start Highest point End
(mag) Time Altitude Azimuth Time Altitude Azimuth Time Altitude Azimuth
SJ-6B 3.6 13:21:37 10° SE 13:24:53 30° ENE 13:28:12 10° N
NOSS 3-4 (A) 3.3 13:20:08 10° SSW 13:25:54 70° ESE 13:32:05 10° NE
NOSS 3-4 (C) 3.3 13:20:16 10° SSW 13:26:02 69° ESE 13:32:11 10° NE
COSMOS 2487 3.6 13:25:02 10° SSE 13:27:41 22° E 13:30:23 10° NE
Cosmos 2322 Rocket 2.5 13:22:29 10° NNW 13:28:10 73° WSW 13:33:51 10° SSE
CZ-4 R/B 3.2 13:24:19 10° SSW 13:28:13 36° W 13:32:08 10° NNW
HJ-1C 4.3 13:25:08 10° S 13:28:19 50° W 13:31:33 10° NNW
Cosmos 2333 Rocket 3.1 13:23:25 10° N 13:28:38 34° NE 13:33:47 10° ESE
SAR-Lupe-4 3.5 13:26:01 10° NNE 13:29:37 83° ESE 13:33:12 10° SSW
NOSS 3-2 (C) 4.3 13:25:01 10° NW 13:32:41 79° WSW 13:41:18 10° SSE
SME Rocket 3.1 13:29:06 10° NNE 13:32:57 73° ESE 13:37:49 10° S
Cosmos 2228 3.0 13:30:21 10° S 13:34:39 65° E 13:38:57 10° NNE
FALCON 9 R/B 4.2 13:30:23 10° WSW 13:37:02 55° S 14:01:49 10° ESE
ATLAS 2AS CENTAUR R/B 3.1 13:31:43 10° SSW 13:39:25 60° ESE 13:47:05 10° NE
Helios 1A Rocket 3.1 13:36:23 10° S 13:40:25 75° WSW 13:44:33 10° NNW
Cosmos 482 Debris 4.1 13:37:30 10° WSW 13:40:32 50° NNW 13:42:40 10° NE
Cosmos 2322 4.3 13:35:38 10° NNW 13:41:00 42° ENE 13:46:12 11° SE
FALCON 9 DEB 4.5 13:38:49 10° S 13:41:23 20° SE 13:43:57 10° E
Cosmos 44 4.4 13:39:30 10° SSE 13:43:33 25° ESE 13:47:47 10° ENE
Cosmos 2058 Rocket 3.7 13:42:23 10° SSE 13:46:18 34° E 13:50:14 10° NNE
Cosmos 2034 Rocket 4.0 13:43:11 10° S 13:49:21 82° E 13:55:40 10° N
NOSS 7 (H) 4.2 13:47:56 10° SSW 13:51:36 64° SE 13:54:35 10° NE
Cosmos 2251 Rocket 4.4 13:47:26 10° SSE 13:51:54 27° E 13:56:22 10° NE
Cosmos 1892 2.8 13:48:45 10° N 13:52:28 55° E 13:56:11 10° SSE
Cosmos 2098 Rocket 4.5 13:47:26 10° N 13:54:22 59° E 14:01:41 10° SSE
Cosmos 1953 Rocket 3.6 13:50:21 10° N 13:54:41 62° E 13:58:59 10° SSE
Nadezhda 4 Rocket 4.0 13:49:57 10° N 13:56:18 90° E 14:02:32 10° S
MetOp-A 4.2 13:51:07 10° SSE 13:56:28 84° WSW 14:01:52 10° NNW
RESURS DK-1 3.1 13:54:36 10° SSE 13:58:11 29° ESE 14:01:47 10° NE
Resurs 01 Rocket 2.7 13:56:44 15° ESE 13:59:31 28° ENE 14:03:18 10° N
Cosmos 2058 3.7 13:58:57 10° N 14:02:46 33° ENE 14:05:11 18° SE
USA 186 2.5 14:00:23 10° S 14:03:35 54° W 14:06:42 10° NNW
Cosmos 405 2.8 14:03:46 10° S 14:07:11 65° E 14:10:38 10° NNE
Cosmos 1825 2.8 14:05:12 10° N 14:08:45 38° ENE 14:10:41 22° SE
COSMOS 2428 3.1 14:03:29 10° NNW 14:09:03 48° ENE 14:12:56 19° SE
Ariane Rocket 3.0 14:04:11 10° SSE 14:09:12 70° ENE 14:14:15 10° N
CZ-2C R/B 4.4 14:05:02 10° N 14:09:41 34° WNW 14:14:21 10° SW
Cosmos 2360 Rocket 2.7 14:04:26 10° NNW 14:10:00 58° WSW 14:15:30 10° S
Cosmos 1302 Rocket 4.5 14:06:38 10° NNW 14:11:52 63° WSW 14:17:04 10° S
Cosmos 1825 Rocket 4.3 14:08:17 10° NNW 14:12:33 53° W 14:16:50 10° S
Cosmos 2026 Rocket 4.0 14:07:00 10° N 14:13:00 58° E 14:18:22 13° SSE
Resurs 1-3 3.6 14:10:11 14° SSE 14:13:49 64° ENE 14:18:10 10° N
Cosmos 2333 4.2 14:09:43 10° NNW 14:15:32 88° ENE 14:20:19 15° SSE
Cosmos 389 Rocket 4.0 14:19:22 20° ENE 14:19:22 20° ENE 14:21:35 10° NE
CENTAUR R/B 4.3 14:11:28 10° NW 14:19:12 43° WSW 14:27:24 10° S
Cosmos 1627 Rocket 4.4 14:14:23 10° N 14:20:32 70° E 14:26:09 13° SSE
OBJECT-B 1.7 14:18:27 10° S 14:21:33 48° W 14:24:43 10° NNW
SL-8 R/B 4.1 14:17:47 10° WNW 14:22:34 59° NNE 14:25:39 21° E
Cosmos 2344 3.4 14:16:47 10° SSW 14:24:17 68° ESE 14:31:56 10° NE
ATLAS 3B R/B 3.0 14:18:03 10° NNW 14:24:58 57° NE 14:29:35 23° ESE
USA 215 3.7 14:20:56 18° E 14:25:44 53° NNE 14:32:04 10° NW
Cosmos 1634 Rocket 3.9 14:19:41 10° S 14:25:56 73° E 14:32:11 10° NNE
Cosmos 1408 2.7 14:22:48 10° NNW 14:26:21 71° W 14:29:03 16° S
Cosmos 2219 Rocket 2.2 14:22:06 10° NNW 14:27:49 77° ENE 14:31:29 23° SSE
CZ-4C R/B 4.2 14:27:13 10° W 14:31:42 29° NW 14:36:59 10° NNE
IGS 5A 3.8 14:31:43 32° SE 14:33:12 48° ENE 14:37:12 10° N
Cosmos 1992 Rocket 3.9 14:30:31 10° NNW 14:35:45 88° ENE 14:38:55 25° SSE
Cosmos 614 Rocket 4.1 14:33:15 11° S 14:37:56 49° ESE 14:42:52 10° NNE
Cosmos 1818 3.5 14:35:43 10° SSW 14:41:05 67° ESE 14:46:32 10° NE
SL-24 R/B - RUBIN 2 4.5 14:34:48 10° SSW 14:41:30 86° ESE 14:47:56 10° NE
Landsat 7 3.9 14:40:55 34° SE 14:42:48 57° ENE 14:47:28 10° N
IRIDIUM 114 4.4 14:41:31 29° SSE 14:44:00 54° E 14:49:05 10° NNE
Cosmos 1455 3.3 14:47:17 10° SSW 14:50:52 43° WNW 14:54:28 10° N
Lacrosse 5 rocket 4.2 14:48:29 10° NW 14:51:07 16° NNW 14:53:51 10° NNE
Cosmos 1655 Rocket 4.4 14:45:27 10° N 14:51:26 43° ENE 14:53:26 34° ESE
Cosmos 407 Rocket 4.1 14:52:07 34° E 14:52:07 34° E 14:56:31 10° NE
Cosmos 2237 Rocket 2.9 14:47:23 10° NNW 14:52:41 40° ENE 14:54:21 32° E
IRIDIUM 103 4.3 14:50:39 31° SSE 14:53:07 66° E 14:58:18 10° N
ARIANE 5 R/B 3.3 14:53:38 35° E 14:54:02 35° ENE 14:58:02 10° N
ERS-1 Rocket 4.0 14:54:54 27° E 14:55:34 28° ENE 14:59:48 10° N
Orbus 7S? 4.5 14:58:55 10° WSW 15:01:42 42° NNW 15:06:44 10° NE
Cosmos 405 Rocket 2.7 15:00:08 10° N 15:04:10 85° W 15:04:45 64° S
Cosmos 2227 Rocket 3.1 15:08:03 31° E 15:08:03 31° E 15:11:53 10° NE
Cosmos 192 4.3 15:04:40 10° NNW 15:09:38 65° ENE 15:10:24 56° ESE
MetOp-B 4.1 15:09:09 40° S 15:11:10 85° W 15:16:34 10° NNW
IRIDIUM 106 4.3 15:08:57 33° S 15:11:24 86° W 15:16:39 10° N
USA 245 3.3 15:12:54 71° ENE 15:12:54 71° ENE 15:16:30 10° N
Cosmos 2333 Rocket 3.3 15:07:37 10° NW 15:12:57 40° WSW 15:16:14 21° SSW
Cosmos 2297 Rocket 2.3 15:14:12 50° ESE 15:14:23 50° ESE 15:19:51 10° NE
Cosmos 2219 3.5 15:15:30 45° E 15:15:30 45° E 15:20:26 10° NE
Cosmos 1633 3.3 15:13:59 10° N 15:16:37 43° NNE 15:16:37 43° NNE
FALCON 9 DEB 3.9 15:14:39 10° WSW 15:17:40 51° WNW 15:17:40 51° WNW
Spot 2 Rocket 3.4 15:18:26 60° ESE 15:19:10 70° ENE 15:24:15 10° N
Cosmos 1140 Rocket 3.6 15:20:15 52° E 15:20:15 52° E 15:24:45 10° NNE
Cosmos-2242 3.6 15:23:34 45° NE 15:23:34 45° NE 15:26:51 10° NNE
Cosmos 44 4.3 15:19:29 10° SW 15:24:27 51° NW 15:29:42 10° NNE
SPOT 1/Viking Rocket 3.6 15:27:39 55° S 15:28:48 77° WSW 15:34:03 10° NNW
ATLAS 2AS CENTAUR R/B 4.3 15:23:26 10° WSW 15:30:48 41° NW 15:38:02 10° NNE
SPOT 5 3.1 15:33:35 52° NE 15:33:35 52° NE 15:37:39 10° N
NOSS 0 Rocket 4.0 15:26:59 10° NNW 15:33:11 71° WSW 15:34:48 50° S
Meteor 2-21 4.4 15:27:09 10° N 15:33:13 82° W 15:34:54 50° S
BREEZE-M DEB (TANK) 4.2 15:22:47 10° WNW 15:33:50 51° N 15:35:14 36° NE
BREEZE M DEB (TANK) 3.1 15:26:33 10° WSW 15:33:59 53° NNW 15:34:39 45° NNE
Resurs 01 Rocket 3.2 15:34:18 23° SW 15:35:55 30° W 15:39:50 10° NW
Cosmos 1812 Rocket 4.4 15:40:23 41° WSW 15:41:19 48° WNW 15:45:39 10° N
Cosmos 1190 Rocket 4.0 15:44:38 70° NE 15:44:38 70° NE 15:49:21 10° NNE
SL-16 R/B 3.0 15:40:29 10° NNW 15:45:47 38° ENE 15:45:56 38° ENE
Cosmos 2151 3.5 15:42:54 10° NNW 15:46:43 57° WNW 15:46:43 57° WNW
Cosmos 1980 3.6 15:42:00 10° NNW 15:47:42 75° WSW 15:48:11 70° SSW
Terra 2.3 15:49:11 50° NNE 15:49:11 50° NNE 15:53:04 10° N
Meteor 2-3 Rocket 3.6 15:42:56 10° N 15:48:45 86° W 15:49:15 75° S
Meteor 1-27 4.1 15:49:12 75° E 15:49:12 75° E 15:54:59 10° NNE
COSMOS 2428 4.3 15:48:19 10° NW 15:53:01 27° WSW 15:54:59 22° SW
CARTOSAT-1 4.3 15:56:31 51° WNW 15:56:31 51° WNW 16:00:04 10° NNW
COSMOS 2455 4.0 16:06:13 31° ENE 16:06:13 31° ENE 16:09:26 10° NE
USA 215 3.5 16:08:16 53° SSW 16:08:44 54° SW 16:15:08 10° WNW
BREEZE M DEB (TANK) 4.1 16:08:09 51° SW 16:09:37 87° SSE 16:24:33 10° ENE
Cosmos 2219 Rocket 4.4 16:07:48 10° WNW 16:11:01 15° W 16:13:14 13° WSW
Meteor 2-8 Rocket 4.3 16:13:57 82° WSW 16:14:04 83° W 16:20:15 10° N
Timation 2 Rocket 4.1 16:13:20 50° SW 16:15:05 74° WNW 16:21:28 10° NNE
ATLAS 3B R/B 3.8 16:09:09 10° NW 16:15:25 34° WSW 16:16:52 32° SW
Nadezhda 2 Rocket 4.5 16:19:00 10° N 16:24:49 74° NNE 16:24:49 74° NNE
Lacrosse 5 rocket 4.2 16:29:24 10° NNW 16:31:49 14° N 16:33:27 12° NNE
ERS-1 Rocket 4.2 16:34:54 35° WNW 16:34:54 35° WNW 16:38:51 10° NNW
BREEZE-M DEB (TANK) 4.1 16:19:31 10° SW 16:35:09 83° NW 16:35:09 83° NW
Cosmos 2237 Rocket 3.5 16:31:40 10° NW 16:36:11 31° W 16:36:11 31° W
Cosmos 2082 4.4 16:48:34 48° N 16:48:34 48° N 16:52:38 10° NNE
Cosmos 2227 Rocket 3.4 16:49:46 35° W 16:50:48 38° WNW 16:56:05 10° NNE
Cosmos 2263 Rocket 4.1 16:54:40 19° NE 16:54:40 19° NE 16:56:22 10° NE
Cosmos 2297 Rocket 4.0 16:55:52 19° W 16:58:42 27° NW 17:03:29 10° N
Cosmos 1553 Rocket 4.4 17:00:39 58° N 17:00:39 58° N 17:05:27 10° N
USA 229 DEB 4.4 16:59:42 10° NNW 17:06:47 51° NE 17:07:27 49° ENE
USA 229 4.4 16:59:48 10° NNW 17:06:54 50° NE 17:07:35 49° ENE
SeaSat 1 3.9 17:05:39 10° NNE 17:08:32 34° N 17:08:32 34° N
NOSS 3-1 (A) 4.3 17:17:20 10° NNW 17:24:44 59° NE 17:25:24 58° ENE
Terra 4.3 17:28:04 14° WNW 17:28:04 14° WNW 17:29:26 10° NW
SL-16 R/B 3.8 17:24:45 10° NW 17:27:49 26° WNW 17:27:49 26° WNW
COSMOS 2455 4.2 17:49:18 32° WNW 17:49:48 32° NW 17:55:10 10° NNE
NOSS 3-1 (C) 4.2 17:44:02 10° NW 17:50:35 66° WNW 17:50:35 66° WNW
Lacrosse 5 rocket 4.3 18:08:12 10° NNW 18:09:04 15° NNW 18:09:04 15° NNW
SL-16 R/B 4.3 18:30:39 21° E 18:32:11 23° ENE 18:36:55 10° N
Cosmos 2263 Rocket 3.7 18:36:19 30° NNW 18:36:19 30° NNW 18:40:11 10° N
Cosmos 1844 Rocket 3.9 18:51:40 37° NNE 18:51:40 37° NNE 18:55:00 10° NNE
USA 281 3.9 19:03:24 44° NW 19:03:24 44° NW 19:07:54 10° NNW
Cosmos 2154 Rocket 4.5 18:59:42 10° N 19:04:38 57° N 19:04:38 57° N
Meteor 1-27 Rocket 4.4 19:25:21 51° NNE 19:25:21 51° NNE 19:29:32 10° N
Cosmos 2278 Rocket 3.8 19:25:24 25° E 19:25:24 25° E 19:29:12 10° NE
Cosmos 2341 Rocket 4.3 19:18:17 10° N 19:24:01 65° NE 19:24:01 65° NE
Cosmos 2181 Rocket 4.5 19:29:04 54° E 19:29:04 54° E 19:34:52 10° NNE
Resurs 1-4 Rocket 3.0 19:27:22 10° NNE 19:31:16 43° NE 19:31:16 43° NE
CZ-2D R/B 2.9 19:30:53 10° NNE 19:35:16 49° ENE 19:35:16 49° ENE
COSMOS 2406 4.5 19:31:09 10° N 19:36:22 36° NE 19:38:13 29° E
Cosmos 1844 4.5 19:45:40 45° NNW 19:45:40 45° NNW 19:50:20 10° NNE
SL-8 Rocket 4.0 19:39:45 10° N 19:45:46 76° NE 19:45:46 76° NE
ATLAS 5 CENTAUR R/B 3.4 19:52:50 10° NNW 19:58:06 42° NE 20:04:14 10° ESE
ADEOS Rocket 4.5 19:56:33 13° SE 20:01:39 37° ENE 20:07:56 10° N
CZ-4C R/B 4.2 19:58:04 10° NNW 20:04:40 39° NE 20:12:15 10° ESE
USA 234 3.1 19:59:07 10° NE 20:05:40 74° SE 20:05:58 73° SSE
BREEZE-M DEB (TANK) 4.0 19:59:36 10° WNW 20:12:13 - E 20:07:43 53° N
NPP 3.8 20:03:37 10° NNE 20:08:28 72° NNE 20:08:28 72° NNE
ADEOS II 2.5 20:06:38 10° NNE 20:11:45 54° E 20:11:45 54° E
Helios 1B rocket 4.1 20:10:06 10° N 20:12:17 29° N 20:12:17 29° N
SL-16 R/B 2.6 20:15:44 64° WNW 20:15:44 64° WNW 20:21:29 10° NNW
Cosmos 2218 Rocket 3.9 20:11:17 10° NNW 20:17:15 73° WNW 20:17:15 73° WNW
Meteor 1-18 Rocket 4.2 20:18:12 76° SE 20:18:26 78° E 20:24:16 10° NNE
Meteor 2-4 Rocket 4.3 20:22:35 47° SE 20:23:47 56° E 20:29:34 10° NNE
Cosmos 864 Rocket 4.4 20:18:18 10° NNW 20:24:31 70° W 20:24:31 70° W
Cosmos 1238 Rocket 4.1 20:19:39 10° NNW 20:25:40 60° W 20:25:40 60° W
SJ 16-02 2.1 20:27:25 49° N 20:27:25 49° N 20:30:45 10° NNE
Cosmos 1959 Rocket 4.5 20:21:52 10° NNW 20:28:07 63° W 20:28:07 63° W
Cosmos 2366 rocket 4.0 20:24:14 10° NNW 20:30:04 60° W 20:30:04 60° W
Cosmos 1844 Rocket 4.4 20:33:18 19° WNW 20:33:57 19° NW 20:37:51 10° N
SL-08 R/B 4.3 20:28:47 10° N 20:34:56 88° E 20:36:19 57° S
ARIANE 5 R/B 4.1 20:33:06 10° NE 20:37:42 30° E 20:40:12 21° SE
Cosmos 1821 Rocket 4.2 20:33:08 10° N 20:39:27 72° E 20:42:34 32° SSE
Cosmos 1898 Rocket 4.2 20:39:08 41° SE 20:40:10 47° ESE 20:45:13 10° NNE
SL-4 R/B 3.7 20:37:14 17° NW 20:40:30 38° NNE 20:45:00 10° E
IDEFIX/ARIANE 42P 3.2 20:35:43 10° NNE 20:40:47 49° E 20:42:14 38° SE
Okean 1-7 3.4 20:41:02 58° E 20:41:02 58° E 20:45:05 10° NNE
Cosmos 158 Rocket 3.8 20:38:40 10° NNW 20:43:15 75° NW 20:43:15 75° NW
Cosmos 2082 Rocket 2.6 20:39:18 10° NNW 20:44:52 61° ENE 20:50:25 10° SE
Cosmos 2242 Rocket 3.6 20:46:53 77° ENE 20:46:53 77° ENE 20:51:09 10° N
CBERS-1 3.9 20:48:06 10° NNE 20:53:14 89° E 20:54:01 65° SSW
Gbstr 26 Del rocket 3.9 20:54:29 44° W 20:56:04 60° NNW 21:01:05 10° NE
Nadezhda 3 Rocket 3.9 20:53:58 45° S 20:56:07 89° W 21:02:31 10° N
Cosmos 1833 Rocket 2.7 20:52:23 10° NNW 20:57:55 57° WSW 20:58:00 57° WSW
IRS-1D 3.5 20:52:56 10° N 20:58:04 69° WNW 20:58:45 61° WSW
Cosmos 2112 Rocket 4.4 20:52:56 10° NNW 20:58:14 65° ENE 21:03:32 10° SSE
Spot 1 4.0 20:58:52 70° NW 20:58:52 70° NW 21:02:41 10° NNW
Cosmos 1378 3.8 21:03:49 46° ESE 21:04:12 49° E 21:07:47 10° NNE
ERBS 4.4 21:04:39 19° NNW 21:04:39 19° NNW 21:06:58 10° NNE
NOSS 3-3 (A) 4.0 21:03:14 46° WSW 21:04:49 63° NW 21:11:21 10° NNE
NOSS 3-3 (C) 4.0 21:03:21 47° WSW 21:04:56 63° NW 21:11:27 10° NNE
X-37B 2.6 21:07:23 22° ESE 21:07:23 22° ESE 21:09:01 10° E
Cosmos 2278 Rocket 2.6 21:07:15 42° W 21:08:21 47° WNW 21:13:50 10° NNE
DELTA 2 R/B (1) 3.7 21:08:51 48° SSW 21:09:37 52° S 21:15:01 10° E
ATLAS 2AS CENTAUR R/B 4.2 21:04:45 10° NNW 21:11:39 39° NE 21:18:03 10° ESE
Resurs 1-4 Rocket 3.5 21:08:03 10° NNW 21:11:58 22° WNW 21:12:21 22° WNW
ARGOS Delta rocket 3.9 21:08:24 10° N 21:12:41 48° WNW 21:12:44 48° WNW
CZ-2D R/B 3.6 21:11:48 10° NNW 21:15:54 22° WNW 21:16:35 21° WNW
Cosmos 1908 Rocket 4.2 21:16:25 10° NNW 21:20:00 37° WNW 21:20:00 37° WNW
COSMOS 2406 3.8 21:15:31 10° NW 21:20:11 35° W 21:20:11 35° W
Cosmos 1943 Rocket 3.1 21:20:00 18° S 21:23:55 44° ESE 21:29:16 10° NE
IRS-P3 4.0 21:19:26 10° NNE 21:24:48 81° WNW 21:27:17 33° SSW
Cosmos 1934 Rocket 4.0 21:18:29 10° N 21:24:50 89° E 21:31:04 10° S
CREW DRAGON DEMO-1 DEB 4.0 21:27:49 32° N 21:27:49 32° N 21:30:01 10° NE
FALCON 9 DEB 4.3 21:30:59 16° NW 21:33:07 38° NNE 21:36:03 10° E
Cosmos 1680 Rocket 3.6 21:28:18 10° NNW 21:33:27 54° WSW 21:37:19 18° S
Meteor 1-12 Rocket 4.3 21:27:40 10° NNW 21:33:42 77° W 21:39:37 10° S
Cosmos 2369 Rocket 3.8 21:31:50 10° SSE 21:36:37 30° ESE 21:41:26 10° NE
Cosmos 2297 3.7 21:35:29 25° SSW 21:38:57 82° ESE 21:44:43 10° NNE
CZ-4B R/B 3.4 21:36:14 10° N 21:40:56 63° WNW 21:43:10 30° SW
Cosmos 1605 Rocket 4.1 21:36:06 10° N 21:42:14 78° E 21:48:23 10° SSE
ATLAS 5 CENTAUR R/B 2.7 21:37:22 10° NW 21:42:52 43° WSW 21:49:11 10° S
MSX 3.8 21:37:52 10° N 21:43:35 68° WNW 21:47:16 23° SSW
Meteor 1-13 Rocket 4.3 21:43:30 25° SSW 21:46:53 60° WNW 21:52:33 10° N
ADEOS Rocket 3.5 21:43:28 22° SSW 21:47:02 41° W 21:53:30 10° NNW
Okean 2 Rocket 3.3 21:43:07 10° N 21:47:34 73° E 21:51:58 10° SSE
USA 234 4.0 21:42:20 10° NE 21:48:26 43° NNW 21:53:19 16° W
FALCON 9 DEB 4.1 21:45:30 10° NW 21:48:29 42° NNE 21:51:28 10° ESE
Cosmos 1782 Rocket 4.2 21:44:46 10° NNW 21:48:52 36° W 21:50:04 30° SW
Cosmos 2221 Rocket 3.6 21:45:29 17° S 21:48:57 82° E 21:53:30 10° N
ERS-1 4.5 21:44:10 10° N 21:49:05 62° WNW 21:52:03 24° SW
CZ-3B R/B 4.2 21:32:53 19° SW 21:49:38 76° SE 21:54:55 10° NE
ADEOS II 3.5 21:47:11 10° NNW 21:51:05 22° WNW 21:52:42 19° W
Cosmos 489 Rocket 4.4 21:45:36 10° NNW 21:51:48 74° WSW 21:57:59 10° S
CZ-2C R/B 3.3 21:48:11 10° NNE 21:51:54 56° E 21:55:30 11° S
ALOS 4.0 21:48:16 10° NNE 21:52:27 32° E 21:56:37 10° SSE
CZ-4C R/B 3.0 21:46:22 10° NW 21:53:43 64° WSW 22:02:04 10° SSE
OE (NEXTSAT) 4.4 21:54:27 36° SW 21:55:39 66° SSE 21:59:05 10° ENE
Cosmos 2084 3.3 21:54:48 29° SW 21:56:51 76° NW 22:01:07 10° NE
Cosmos 1300 Rocket 3.5 21:54:47 10° NNW 21:59:13 68° W 22:03:37 10° S
Cosmos 1356 Rocket 3.4 21:58:25 10° NNW 22:02:27 58° W 22:06:32 10° S
Cosmos 1766 3.3 22:00:50 10° N 22:04:51 87° E 22:08:50 10° S
FENGYUN 3A 4.2 22:11:18 10° NNE 22:16:40 62° E 22:21:58 10° S
CZ-2D R/B 4.1 22:12:57 10° N 22:16:45 38° WNW 22:19:37 16° SW
ARIANE 5 R/B 3.3 22:12:03 10° N 22:16:48 36° WNW 22:20:32 15° SW
Cosmos 1727 Rocket 4.0 22:13:32 10° S 22:19:45 87° W 22:26:04 10° N
Okean 1 Rocket 3.8 22:15:28 10° N 22:19:54 58° E 22:24:17 10° SSE
BREEZE-M DEB (TANK) 1.9 22:18:01 11° WNW 22:20:01 76° SSW 22:24:00 10° SE
IDEFIX/ARIANE 42P 3.9 22:16:00 10° NNW 22:20:02 23° WNW 22:23:02 14° WSW
SL-4 R/B 2.3 22:15:44 10° WNW 22:20:35 78° SW 22:25:17 10° SE
Cosmos 1937 Rocket 4.4 22:17:42 17° WSW 22:20:58 32° WNW 22:25:35 10° N
SL-08 R/B 4.2 22:16:55 10° SSW 22:21:11 29° W 22:25:26 10° NW
Spot 4 Rocket 4.3 22:17:42 10° N 22:22:41 50° WNW 22:27:38 10° SW
Sich 1 Rocket 4.5 22:21:14 10° NNW 22:25:14 31° W 22:29:15 10° SSW
Cosmos 2298 Rocket 4.2 22:21:10 10° SSW 22:26:27 78° ESE 22:31:47 10° NNE
Cosmos 2082 Rocket 3.4 22:24:29 10° NW 22:28:25 20° W 22:32:20 10° SW
IRAS Rocket 4.3 22:23:13 10° S 22:28:35 57° WSW 22:34:03 10° NNW
Cosmos 1459 Rocket 4.5 22:24:17 10° N 22:30:41 68° E 22:36:58 10° SSE
Cosmos 1805 4.1 22:27:16 10° NNW 22:30:43 30° W 22:34:09 10° SSW
Cosmos 1470 3.4 22:29:06 10° N 22:32:56 60° E 22:36:44 10° SSE
Cosmos 1733 3.9 22:30:50 10° NNW 22:34:14 33° W 22:37:37 10° SSW
Cosmos 1656 Rocket 4.3 22:30:08 10° S 22:35:23 56° ESE 22:40:42 10° NNE
Cosmos 1400 Rocket 3.4 22:31:26 10° N 22:35:31 64° ENE 22:39:37 10° SSE
PAYLOAD A 4.4 22:34:20 10° N 22:39:15 46° WNW 22:43:59 10° SW
Cosmos 494 Rocket 4.4 22:36:00 10° NNW 22:41:16 69° ENE 22:46:26 10° SSE
X-37B 0.6 22:39:39 11° W 22:42:39 80° NNW 22:45:50 10° ENE
CZ-2C R/B 2.8 22:38:36 10° N 22:43:06 45° WNW 22:47:44 10° SW
FALCON 9 DEB 2.9 22:41:22 10° WNW 22:44:26 59° SW 22:47:29 10° SE
Okean 2 3.4 22:40:52 10° SSW 22:44:59 73° W 22:49:09 10° N
Cosmos 1378 Rocket 3.7 22:41:31 10° SSW 22:45:51 55° W 22:50:13 10° N
NOSS 3-4 (A) 4.2 22:41:34 10° NW 22:48:20 45° WSW 22:55:45 10° S
NOSS 3-4 (C) 4.2 22:41:41 10° NW 22:48:27 45° WSW 22:55:52 10° S
Cosmos 2263 4.3 22:44:57 10° SSW 22:50:40 86° ESE 22:56:28 10° NNE
METEOR-M 4.2 22:46:40 10° NNE 22:52:03 89° E 22:57:24 10° SSW
Landsat 5 3.6 22:50:19 10° S 22:54:46 75° WSW 22:59:18 10° NNW
FALCON 9 DEB 3.4 22:52:00 10° WNW 22:54:53 36° SW 22:57:46 10° SSE
Cosmos 1707 2.8 22:51:01 10° S 22:54:53 83° E 22:58:46 10° N
DELTA 2 R/B (1) 3.8 22:50:18 10° W 22:55:44 56° S 23:01:12 10° ESE
